Regional Weather Roundup
Issued by NWS

Home | Current Version | Previous Version | Graphics & Text | Print | Product List | Glossary On
Versions: 1 2 3 4 5 6 7 8 9 10 11 12 13 14 15 16 17 18 19 20 21 22 23 24 25 26 27 28 29 30 31 32 33 34 35 36 37 38 39 40 41 42 43 44 45 46 47 48 49 50
000
ASUS43 KIND 242309
RWRIN

WEATHER ROUNDUP FOR INDIANA
NATIONAL WEATHER SERVICE INDIANAPOLIS IN
700 PM EDT WED MAY 24 2017

NOTE: "FAIR" INDICATES FEW OR NO CLOUDS BELOW 12,000 FEET WITH NO
SIGNIFICANT WEATHER AND/OR OBSTRUCTIONS TO VISIBILITY.

* - STATION DOES NOT REPORT WEATHER SUCH AS PRECIPITATION OR FOG.

+ - STATION NOT QUALITY CONTROLLED BY THE NATIONAL WEATHER SERVICE.
    USE DATA WITH CAUTION...ESPECIALLY DEWPOINT AND RELATIVE
    HUMIDITY OBSERVATIONS.

INZ001>003-010>013-019-020-250000-
NORTHWEST INDIANA

CITY           SKY/WX    TMP DP  RH WIND       PRES   REMARKS
GARY /AIRPORT/ RAIN      52  50  93 NW8       29.56F
KNOX *+        CLOUDY    57  54  88 N13       29.50R
LA PORTE +     LGT RAIN  56  54  93 NE7G20    29.53R
MICHIGAN CITY+ CLOUDY    52  52 100 NE6       29.54R
MONTICELLO +   LGT RAIN  59  58  95 N12       29.47S
RENSSELAER +   RAIN      57  54  88 NW7       29.50F
VALPARAISO     CLOUDY    55  54  96 NW8       29.51S FOG

$$

LMZ046-743>745-250000-
SOUTHERN LAKE MICHIGAN

STATION/POSITION TIME  TEMP    WIND        PRES    WAVE
                       AIR SEA DIR/SP/G            HT
                 (UTC) (F)     (DEG/KT/KT) (MB)    (FT)
BURNS HARBOR     2240   51     320/ 12/ 14 1000.7F
MICHIGAN CITY    2240   50     290/ 14/ 15   N/A
5NW MICH CITY    2300   50 54  310/ 14/ 17   N/A     4

$$

INZ004-005-014>016-021>024-250000-
NORTH CENTRAL INDIANA

CITY           SKY/WX    TMP DP  RH WIND       PRES   REMARKS
ELKHART        LGT RAIN  59  57  94 NE6       29.51S
GOSHEN         LGT RAIN  61  57  87 NE8       29.50R
LOGANSPORT +   RAIN      57  55  94 N15G25    29.47F
PERU/GRISSOM   CLOUDY    59  59 100 N9        29.45F
ROCHESTER +    RAIN      61  61 100 N9        29.48F
SOUTH BEND     LGT RAIN  58  56  93 CALM      29.51F
WARSAW +       RAIN      59  59 100 E5        29.49S

$$

INZ006>009-017-018-025>027-250000-
NORTHEAST INDIANA

CITY           SKY/WX    TMP DP  RH WIND       PRES   REMARKS
ANGOLA *+      CLOUDY    57  46  67 N6        29.50S
AUBURN +       HVY RAIN  59  55  88 N7        29.48F
FORT WAYNE     HVY RAIN  59  56  89 NW14      29.44F FOG
HUNTINGTON +   RAIN      58  56  96 NE8       29.46F
KENDALLVILLE + HVY RAIN  58  58  98 N6        29.50F

$$

INZ028-029-035-036-043>045-051>053-250000-
WEST CENTRAL INDIANA

CITY           SKY/WX    TMP DP  RH WIND       PRES   REMARKS
CRAWFORDSVL +  CLOUDY    58  56  91 N9        29.46S
GREENCASTLE +  CLOUDY    59  55  88 NW6       29.45F
LAFAYETTE      CLOUDY    61  57  87 N9        29.46S
TERRE HAUTE    CLOUDY    59  55  87 W3        29.46S

$$

INZ030>032-037>040-046>048-054>057-064-065-250000-
CENTRAL INDIANA

CITY           SKY/WX    TMP DP  RH WIND       PRES   REMARKS
CP ATTERBURY + CLOUDY    59  55  88 NW7       29.41S
COLUMBUS       LGT RAIN  59  57  94 N13       29.41S
FISHERS *+     CLOUDY    57  57 100 N6        29.43
FRANKFORT +    LGT RAIN  62  58  85 N14       29.47S
GREENWOOD *+   CLOUDY    60  57  90 N8        29.43S
INDIANAPOLIS   CLOUDY    59  56  89 N13       29.42F
-EAGLE CREEK   CLOUDY    60  57  89 N12       29.42F
KOKOMO +       LGT RAIN  60  58  92 N10       29.46F
MARION +       CLOUDY    57  55  94 N7        29.45F
MT COMFORT *+  CLOUDY    59  57  94 N13       29.42F
SHELBYVILLE    LGT RAIN  62  57  83 N14       29.40F
ZIONSVILLE +   CLOUDY    58  56  94 N10       29.44F

$$

INZ033-034-041-042-049-050-058-059-250000-
EAST CENTRAL INDIANA

CITY           SKY/WX    TMP DP  RH WIND       PRES   REMARKS
MUNCIE         CLOUDY    61  57  87 N15       29.42F
RICHMOND +     RAIN      55  55 100 NW10      29.40S

$$

INZ060-061-067>069-081>083-085>088-250000-
SOUTHWEST INDIANA

CITY           SKY/WX    TMP DP  RH WIND       PRES   REMARKS
EVANSVILLE     LGT RAIN  59  54  83 W8        29.50S
HUNTINGBURG *+ LGT RAIN  58  56  93 W14       29.46S
WASHINGTON +   RAIN      58  57  94 NW10      29.45S

$$

INZ062-063-066-070>080-084-089>092-250000-
SOUTH CENTRAL AND SOUTHEAST INDIANA

CITY           SKY/WX    TMP DP  RH WIND       PRES   REMARKS
BLOOMINGTON    CLOUDY    59  55  87 VRB6      29.43F
MADISON *+     CLOUDY    59  57  94 W5        29.40S
NORTH VERNON + CLOUDY    57  55  94 N9        29.40R
SEYMOUR +      DRIZZLE   61  59  94 NW12      29.40S

$$




USA.gov is the U.S. government's official web portal to all federal, state and local government web resources and services.